STARLINK-30547, 58044

Orbit data source: Space-Track

STARLINK-30547, 58044 is a payload satellite owned by SpaceX/Seattle (US) in LEO that was launched on Mon, 09 Oct 2023 UTC via an FALCON 9 launch vehicle from the Air Force Western Test Range (AFWTR). Payload-class satellites include a variety of spacecraft equipped with specific instruments for various scientific and technological missions. These include communications satellites like Starlink; space stations such as the ISS; scientific satellites like the Hubble; Earth observation satellites from companies like Planet Labs, Umbra, and HawkEye 360; GPS; miniature CubeSats for education and research; and military/defense satellites.

Loading next visibility...
Identifier
58044, 2023-156S
Orbit
LEO
Country
Flag of USUS
Related business
Manufacturer
SpaceX/Seattle
Mission
Operational Commercial Communications
Bus & Motor
STARLINK V2M, Unknown motor
Mass
730 kg wet, ~700 kg dry
Launch date (UTC)
2023-10-09 (3 years ago)
Launch vehicle
FALCON 9
Launch site
Air Force Western Test Range (AFWTR)
Object type
Payload
Rocket body
Debris
Shape & HBR
Box + 2 Pan, 17.7 m
Radar Cross Section
33.884 m², Large (>1 m²)

Expand to show TLE details & history
Last TLE update: 3 days ago

TLE from 3 days ago
0 STARLINK-30547
1 58044U 23156S   26170.89517327  .00000536  00000-0  27003-4 0  9996
2 58044  53.1600  52.5082 0001108  88.0519 272.0610 15.34396737150698
Epoch: 2026-06-19T21:29Z
TLE epoch observation values (Epoch: 2026-06-19T21:29:02.970Z)
Latitude
-0.00006°
Longitude
-177.87181°
Altitude
463.587 km
Speed
7.636 km/s
True Right ascension
03h 30m 01s
True Declination
0° 00' 00"
Sunlit
Object was in daylight at epoch
Visualization orbit readout
Latitude
Unknown
Longitude
Unknown
Altitude
Unknown
Speed
Unknown
Apparent Right ascension
Unknown
Apparent Declination
Unknown
Sunlit
N/A
Visualization observer readout
Local Sidereal Time
21:40:30
Azimuth
Unknown
Elevation
Unknown
Doppler factor
Unknown
Orbital elements
Apogee altitude
463.728 km
Perigee altitude
462.212 km
Semi-major axis
6,841.107 km
Eccentricity
0.00011
Inclination
53.16°
RAAN
52.5082°
Arg. of periapsis
88.0519°
True anomaly
272.04831°
Mean anomaly
272.061°
Eccentric anomaly
272.05466°
Mean motion
3.83578 °/min
Orbital period
93.85 mins
BSTAR
0.000027003
Loading maneuver chart data...
Computing Atmospheric mass density...
Loading historical data...
Loading historical data...
Loading historical data...
Loading historical data...
Loading historical data...
Loading historical data...
Loading historical data...

Documentation

Showing up to 5 results
|